Weather History for Puyallup, WA

Change the Weather History Date:

Sunday, April 6, 2014

  Actual Average (KTCM) Record (KTCM)
Temperature  
Mean Temperature 52 °F -  
Max Temperature 57 °F 53 °F 77 °F (2007)
Min Temperature 46 °F 35 °F 28 °F (1997)
Degree Days  
Heating Degree Days 14    
Growing Degree Days 2 (Base 50)    
Moisture  
Dew Point 49 °F    
Average Humidity 96    
Maximum Humidity 100    
Minimum Humidity 77    
Precipitation  
Precipitation 0.01 in - - ()
Sea Level Pressure  
Sea Level Pressure 30.24 in    
Wind  
Wind Speed 2 mph (West)    
Max Wind Speed 6 mph    
Max Gust Speed -    
Visibility 8 miles    
Events Rain    
Averages and records for this station are not official NWS values.
T = Trace of Precipitation, MM = Missing Value Source: NWS Daily Summary

Daily Weather History Graph

Daily Weather History Graph

Search for Another Location

Airport:

Trip Planner

Search our weather history database for the weather conditions in past years. The results will help you decide how hot, cold, wet, or windy it might be!

Date:

Astronomy

Apr. 06, 2014 Rise Set
Actual Time 6:38 AM PDT 7:45 PM PDT
Civil Twilight 6:06 AM PDT 8:16 PM PDT
Nautical Twilight 5:29 AM PDT 8:54 PM PDT
Astronomical Twilight 4:49 AM PDT 9:34 PM PDT
Moon 11:31 AM PDT (4/6) 1:58 AM PDT (4/6)
Length of Visible Light 14h 10m
Length of Day
13h 07m
Waxing Crescent, 45% of the Moon is Illuminated
Apr 6
Waxing Crescent
Apr 7
First Quarter
Apr 15
Full
Apr 22
Last Quarter
Apr 28
New

Hourly Weather History & Observations

Time (PDT) Temp. Windchill Dew Point Humidity Pressure Visibility Wind Dir Wind Speed Gust Speed Precip Events Conditions
12:15 AM 48.2 °F - 48.2 °F 100% 30.14 in 9.0 mi Calm Calm - N/A   Unknown
12:35 AM 48.2 °F - 48.2 °F 100% 30.14 in 5.0 mi SW 3.5 mph - N/A Rain Light Rain
12:55 AM 46.4 °F 44.3 °F 46.4 °F 100% 30.15 in 6.0 mi SW 4.6 mph - 0.01 in Rain Light Rain
1:15 AM 46.4 °F 44.3 °F 46.4 °F 100% 30.15 in 6.0 mi SW 4.6 mph - N/A   Mist
1:35 AM 46.4 °F 44.3 °F 46.4 °F 100% 30.15 in 9.0 mi SW 4.6 mph - N/A   Unknown
1:55 AM 46.4 °F 43.5 °F 46.4 °F 100% 30.15 in 10.0 mi SSW 5.8 mph - N/A   Unknown
2:15 AM 46.4 °F 44.3 °F 46.4 °F 100% 30.16 in 10.0 mi SW 4.6 mph - N/A   Unknown
2:35 AM 46.4 °F 44.3 °F 46.4 °F 100% 30.15 in 10.0 mi SW 4.6 mph - N/A   Unknown
2:55 AM 46.4 °F - 46.4 °F 100% 30.15 in 9.0 mi Calm Calm - N/A   Unknown
3:15 AM 46.4 °F - 46.4 °F 100% 30.15 in 10.0 mi Calm Calm - N/A   Unknown
3:35 AM 46.4 °F - 46.4 °F 100% 30.15 in 10.0 mi Calm Calm - N/A   Unknown
3:55 AM 46.4 °F - 46.4 °F 100% 30.16 in 10.0 mi Calm Calm - N/A   Unknown
4:15 AM 46.4 °F - 46.4 °F 100% 30.15 in 10.0 mi Calm Calm - N/A   Unknown
4:35 AM 46.4 °F 45.2 °F 46.4 °F 100% 30.17 in 10.0 mi WSW 3.5 mph - N/A   Unknown
4:55 AM 46.4 °F - 46.4 °F 100% 30.17 in 5.0 mi Calm Calm - N/A   Mist
5:15 AM 46.4 °F 45.2 °F 46.4 °F 100% 30.17 in 5.0 mi SSW 3.5 mph - N/A   Mist
5:35 AM 46.4 °F 45.2 °F 46.4 °F 100% 30.18 in 7.0 mi WSW 3.5 mph - N/A   Unknown
5:55 AM 46.4 °F - 46.4 °F 100% 30.18 in 9.0 mi Calm Calm - N/A Rain Light Rain
6:15 AM 46.4 °F - 46.4 °F 100% 30.19 in 9.0 mi Calm Calm - N/A   Unknown
6:35 AM 46.4 °F - 46.4 °F 100% 30.19 in 6.0 mi Calm Calm - N/A   Mist
6:55 AM 46.4 °F - 46.4 °F 100% 30.20 in 9.0 mi Calm Calm - N/A   Unknown
7:15 AM 46.4 °F - 46.4 °F 100% 30.21 in 9.0 mi Calm Calm - N/A   Unknown
7:35 AM 46.4 °F - 46.4 °F 100% 30.21 in 8.0 mi Calm Calm - N/A   Unknown
7:55 AM 46.4 °F - 46.4 °F 100% 30.22 in 2.0 mi Calm Calm - N/A   Mist
8:15 AM 46.4 °F - 46.4 °F 100% 30.23 in 2.0 mi Calm Calm - N/A   Mist
8:35 AM 46.4 °F - 46.4 °F 100% 30.23 in 2.5 mi Calm Calm - N/A   Mist
8:55 AM 48.2 °F - 48.2 °F 100% 30.24 in 1.5 mi Calm Calm - N/A   Mist
9:15 AM 48.2 °F - 48.2 °F 100% 30.24 in 2.0 mi Calm Calm - N/A   Mist
9:35 AM 48.2 °F - 48.2 °F 100% 30.24 in 3.0 mi Calm Calm - N/A   Mist
9:55 AM 48.2 °F - 48.2 °F 100% 30.25 in 1.8 mi Calm Calm - N/A   Mist
10:15 AM 48.2 °F - 48.2 °F 100% 30.25 in 8.0 mi Calm Calm - N/A   Unknown
10:35 AM 50.0 °F - 50.0 °F 100% 30.26 in 5.0 mi West 3.5 mph - N/A   Mist
10:55 AM 50.0 °F - 50.0 °F 100% 30.27 in 6.0 mi Calm Calm - N/A   Mist
11:15 AM 50.0 °F - 50.0 °F 100% 30.26 in 5.0 mi Calm Calm - N/A   Mist
11:35 AM 50.0 °F - 50.0 °F 100% 30.26 in 5.0 mi NNE 3.5 mph - N/A   Mist
11:55 AM 50.0 °F - 50.0 °F 100% 30.27 in 9.0 mi Calm Calm - N/A   Unknown
12:15 PM 50.0 °F - 50.0 °F 100% 30.27 in 7.0 mi NNW 3.5 mph - N/A Rain Light Rain
12:35 PM 50.0 °F - 50.0 °F 100% 30.28 in 2.0 mi NNW 3.5 mph - N/A Rain Light Rain
12:55 PM 50.0 °F - 50.0 °F 100% 30.29 in 1.2 mi North 4.6 mph - N/A Rain Light Rain
1:15 PM 50.0 °F - 50.0 °F 100% 30.29 in 3.0 mi North 3.5 mph - N/A Rain Light Rain
1:35 PM 51.8 °F - 51.8 °F 100% 30.29 in 3.0 mi Calm Calm - N/A Rain Light Rain
1:55 PM 51.8 °F - 50.0 °F 94% 30.29 in 5.0 mi Calm Calm - N/A   Mist
2:15 PM 53.6 °F - 51.8 °F 94% 30.29 in 3.0 mi Calm Calm - N/A   Mist
2:35 PM 51.8 °F - 51.8 °F 100% 30.29 in 3.0 mi Calm Calm - N/A   Mist
2:55 PM 53.6 °F - 51.8 °F 94% 30.29 in 9.0 mi Calm Calm - N/A   Unknown
3:15 PM 55.4 °F - 51.8 °F 88% 30.29 in 10.0 mi Calm Calm - N/A   Unknown
3:35 PM 55.4 °F - 51.8 °F 88% 30.28 in 10.0 mi Calm Calm - N/A   Unknown
3:55 PM 55.4 °F - 50.0 °F 82% 30.28 in 10.0 mi SSE 3.5 mph - N/A   Unknown
4:15 PM 57.2 °F - 50.0 °F 77% 30.28 in 10.0 mi Calm Calm - N/A   Unknown
4:35 PM 55.4 °F - 53.6 °F 94% 30.28 in 10.0 mi NE 3.5 mph - N/A   Unknown
4:55 PM 55.4 °F - 53.6 °F 94% 30.27 in 10.0 mi Calm Calm - N/A   Unknown
5:15 PM 57.2 °F - 53.6 °F 88% 30.28 in 10.0 mi Calm Calm - N/A   Unknown
5:35 PM 57.2 °F - 51.8 °F 82% 30.28 in 10.0 mi Calm Calm - N/A   Unknown
5:55 PM 57.2 °F - 51.8 °F 82% 30.28 in 10.0 mi Calm Calm - N/A   Unknown
6:15 PM 57.2 °F - 51.8 °F 82% 30.28 in 10.0 mi Calm Calm - N/A   Unknown
6:35 PM 57.2 °F - 53.6 °F 88% 30.28 in 10.0 mi Calm Calm - N/A   Unknown
6:55 PM 57.2 °F - 51.8 °F 82% 30.27 in 10.0 mi Calm Calm - N/A   Unknown
7:15 PM 55.4 °F - 53.6 °F 94% 30.27 in 10.0 mi Calm Calm - N/A   Unknown
7:35 PM 55.4 °F - 53.6 °F 94% 30.27 in 10.0 mi Calm Calm - N/A   Unknown
7:55 PM 55.4 °F - 53.6 °F 94% 30.28 in 10.0 mi Calm Calm - N/A   Unknown
8:15 PM 55.4 °F - 50.0 °F 82% 30.28 in 10.0 mi West 5.8 mph - N/A   Unknown
8:35 PM 55.4 °F - 50.0 °F 82% 30.29 in 10.0 mi WNW 3.5 mph - N/A   Unknown
8:55 PM 53.6 °F - 50.0 °F 88% 30.30 in 10.0 mi WNW 4.6 mph - N/A   Unknown
9:15 PM 53.6 °F - 50.0 °F 88% 30.30 in 10.0 mi WNW 3.5 mph - N/A   Unknown
9:35 PM 53.6 °F - 50.0 °F 88% 30.30 in 10.0 mi Calm Calm - N/A   Unknown
10:15 PM 51.8 °F - 50.0 °F 94% 30.32 in 10.0 mi Calm Calm - N/A   Unknown
10:35 PM 51.8 °F - 51.8 °F 100% 30.32 in 10.0 mi Calm Calm - N/A   Unknown
10:55 PM 51.8 °F - 51.8 °F 100% 30.32 in 10.0 mi Calm Calm - N/A   Unknown
11:15 PM 53.6 °F - 51.8 °F 94% 30.31 in 10.0 mi Calm Calm - N/A   Unknown
11:35 PM 53.6 °F - 50.0 °F 88% 30.32 in 10.0 mi SW 3.5 mph - N/A   Unknown
11:55 PM 51.8 °F - 50.0 °F 94% 30.32 in 10.0 mi West 3.5 mph - N/A   Unknown